Peoria, IL

2:39 AM CDT on September 26, 2016 (GMT -0500)
Greater Peoria Regional

Weather History for KPIA - July, 2014

Change the Weather History Date:

Saturday, July 12, 2014

  Actual Average Record
Temperature  
Mean Temperature 82 °F 76 °F  
Max Temperature 90 °F 86 °F 107 °F (1936)
Min Temperature 74 °F 66 °F 50 °F (1975)
Degree Days  
Heating Degree Days 0 0  
Month to date heating degree days 0 0  
Since 1 June heating degree days 0 18  
Since 1 July heating degree days 0 0  
Cooling Degree Days 17 11  
Month to date cooling degree days 99 130  
Year to date cooling degree days 549 433  
Since 1 June cooling degree days 391 352  
Growing Degree Days 32 (Base 50)    
Moisture  
Dew Point 71 °F    
Average Humidity 73    
Maximum Humidity 84    
Minimum Humidity 62    
Precipitation  
Precipitation 0.04 in 0.13 in 2.73 in (1924)
Month to date precipitation 0.77 1.52  
Year to date precipitation 22.42 19.38  
Snow  
Snow 0.00 in 0.00 in 0.00 in ()
Month to date snowfall 0.0 0.0  
Since 1 June snowfall 0.0 0.0  
Since 1 July snowfall 0.0 0.0  
Snow Depth 0.00 in    
Sea Level Pressure  
Sea Level Pressure 29.99 in    
Wind  
Wind Speed 9 mph (SSW)    
Max Wind Speed 23 mph    
Max Gust Speed 31 mph    
Visibility 10 miles    
Events Rain , Thunderstorm    
T = Trace of Precipitation, MM = Missing Value Source: NWS Daily Summary

Daily Weather History Graph

Daily Weather History Graph

Search for Another Location

Airport or City:

Trip Planner

Search our weather history database for the weather conditions in past years. The results will help you decide how hot, cold, wet, or windy it might be!

Date:

Astronomy

Jul. 12, 2014 Rise Set
Actual Time 5:38 AM CDT 8:30 PM CDT
Civil Twilight 5:05 AM CDT 9:02 PM CDT
Nautical Twilight 4:24 AM CDT 9:43 PM CDT
Astronomical Twilight 3:37 AM CDT 10:30 PM CDT
Moon 8:31 PM CDT (7/12) 5:58 AM CDT (7/12)
Length of Visible Light 15h 56m
Length of Day
14h 51m
Full, 100% of the Moon is Illuminated
Jul 12
Full
Jul 18
Last Quarter
Jul 26
New
Aug 3
First Quarter
Aug 10
Full

Hourly Weather History & Observations

Time (CDT) Temp. Heat Index Dew Point Humidity Pressure Visibility Wind Dir Wind Speed Gust Speed Precip Events Conditions
12:54 AM 79.0 °F - 64.0 °F 60% 30.07 in 10.0 mi South 8.1 mph - N/A   Mostly Cloudy
1:54 AM 77.0 °F - 66.0 °F 69% 30.05 in 10.0 mi South 8.1 mph - N/A   Mostly Cloudy
2:21 AM 77.0 °F - 66.0 °F 69% 30.05 in 10.0 mi South 10.4 mph - N/A Thunderstorm Overcast
2:36 AM 77.0 °F - 66.0 °F 69% 30.05 in 10.0 mi South 9.2 mph - N/A   Mostly Cloudy
2:54 AM 75.0 °F - 66.9 °F 76% 30.02 in 9.0 mi South 8.1 mph - N/A   Partly Cloudy
3:54 AM 75.0 °F - 68.0 °F 79% 30.01 in 10.0 mi South 5.8 mph - N/A   Mostly Cloudy
4:54 AM 73.9 °F - 68.0 °F 82% 30.01 in 9.0 mi South 5.8 mph - N/A   Scattered Clouds
5:54 AM 75.9 °F - 70.0 °F 82% 30.02 in 9.0 mi SSW 6.9 mph - N/A   Overcast
6:54 AM 77.0 °F - 71.1 °F 82% 30.02 in 9.0 mi SSW 8.1 mph - N/A   Overcast
7:54 AM 78.1 °F - 72.0 °F 81% 30.03 in 5.0 mi SW 8.1 mph - N/A   Haze
8:31 AM 79.0 °F - 73.0 °F 82% 30.06 in 10.0 mi West 8.1 mph - 0.00 in Rain Light Rain
8:54 AM 79.0 °F - 71.1 °F 77% 30.04 in 10.0 mi WNW 6.9 mph - 0.00 in   Mostly Cloudy
9:01 AM 79.0 °F - 71.1 °F 77% 30.06 in 10.0 mi NW 3.5 mph - N/A   Scattered Clouds
9:54 AM 81.0 °F 84.1 °F 69.1 °F 67% 30.05 in 10.0 mi Calm Calm - N/A   Clear
10:54 AM 82.0 °F 84.9 °F 68.0 °F 62% 30.04 in 10.0 mi SE 4.6 mph - N/A   Partly Cloudy
11:54 AM 82.0 °F 85.9 °F 70.0 °F 67% 30.03 in 10.0 mi South 6.9 mph - N/A   Clear
12:54 PM 81.0 °F 85.2 °F 72.0 °F 74% 30.03 in 10.0 mi SSW 6.9 mph - N/A   Partly Cloudy
1:54 PM 84.0 °F 91.2 °F 73.9 °F 72% 30.01 in 10.0 mi SSW 10.4 mph - N/A   Clear
2:54 PM 87.1 °F 96.3 °F 75.0 °F 67% 29.98 in 10.0 mi SSW 13.8 mph - N/A   Clear
3:54 PM 89.1 °F 100.2 °F 75.9 °F 65% 29.96 in 10.0 mi SSW 15.0 mph - N/A   Clear
4:54 PM 88.0 °F 95.6 °F 73.0 °F 61% 29.94 in 10.0 mi SW 15.0 mph - N/A   Clear
5:54 PM 87.1 °F 95.4 °F 73.9 °F 65% 29.93 in 10.0 mi SSW 13.8 mph - N/A   Clear
6:54 PM 87.1 °F 95.4 °F 73.9 °F 65% 29.91 in 10.0 mi SSW 15.0 mph - N/A   Clear
7:54 PM 84.9 °F 91.4 °F 73.0 °F 67% 29.89 in 10.0 mi SSW 10.4 mph - N/A   Clear
8:54 PM 84.0 °F 90.2 °F 73.0 °F 69% 29.88 in 10.0 mi SSW 11.5 mph - N/A   Clear
9:54 PM 82.9 °F 88.8 °F 73.0 °F 72% 29.88 in 10.0 mi SW 12.7 mph - N/A   Clear
10:54 PM 81.0 °F 85.8 °F 73.0 °F 77% 29.91 in 9.0 mi WSW 11.5 mph - 0.01 in Rain Light Rain
11:54 PM 75.9 °F - 69.1 °F 79% 29.90 in 10.0 mi West 6.9 mph - 0.03 in Rain Light Rain